Date,TemperatureHighF,TemperatureAvgF,TemperatureLowF,DewpointHighF,DewpointAvgF,DewpointLowF,HumidityHigh,HumidityAvg,HumidityLow,PressureMaxIn,PressureMinIn,WindSpeedMaxMPH,WindSpeedAvgMPH,GustSpeedMaxMPH,PrecipitationSumIn
2013-1-1,38,34,28,37,34,28,99,97,96,30.45,30.34,0,0,1,0.00
2013-1-2,38,33,32,31,30,27,96,88,76,30.33,30.24,1,0,5,0.00
2013-1-3,45,34,30,32,27,23,89,76,54,30.24,30.10,3,0,11,0.00
2013-1-4,43,38,35,42,37,34,99,98,97,30.27,30.15,0,0,2,0.00
2013-1-5,39,38,36,39,38,36,100,99,99,30.17,30.08,0,0,0,0.00
2013-1-6,43,39,36,42,39,36,100,99,97,30.13,29.99,1,0,6,0.00
2013-1-7,46,40,35,46,40,35,100,99,97,30.10,29.87,4,1,12,0.00
2013-1-8,44,41,39,43,41,38,99,98,96,30.10,29.81,0,0,0,0.00
2013-1-9,45,39,35,45,39,34,99,98,98,29.87,29.57,6,1,21,0.00
2013-1-10,37,35,34,36,34,33,99,98,96,29.98,29.85,3,1,10,0.00
2013-1-11,37,32,28,33,30,27,98,93,69,30.23,29.97,2,0,8,0.00
2013-1-12,37,29,24,30,27,24,98,94,70,30.32,30.22,1,0,6,0.00
2013-1-13,36,28,24,29,27,23,98,93,74,30.41,30.32,1,0,7,0.00
2013-1-14,32,28,24,31,27,23,98,97,93,30.47,30.39,0,0,0,0.00
2013-1-15,46,35,32,37,33,31,98,92,69,30.60,30.47,1,0,4,0.00
2013-1-16,32,31,31,32,31,31,98,98,98,30.59,30.57,0,0,0,0.00
2013-1-17,36,36,34,35,35,34,99,97,97,30.44,30.29,0,0,0,0.00
2013-1-18,49,37,33,40,34,32,98,90,65,30.29,30.19,0,0,0,0.00
2013-1-19,58,41,33,41,34,30,93,80,48,30.32,30.20,0,0,1,0.00
2013-1-20,60,42,34,41,34,30,88,76,43,30.32,30.18,0,0,0,0.00
2013-1-21,57,41,33,37,32,29,87,73,39,30.21,30.04,2,0,4,0.00
2013-1-22,48,38,33,42,33,28,90,82,69,30.09,29.91,0,0,0,0.00
2013-1-23,45,41,39,41,38,34,97,89,74,30.07,29.80,4,1,14,0.00
2013-1-24,47,42,38,43,40,37,98,94,80,30.15,30.05,0,0,0,0.00
2013-1-25,46,43,40,46,42,39,99,99,98,30.09,29.93,0,0,1,0.00
2013-1-26,46,39,36,44,39,36,100,97,87,30.01,29.89,4,0,11,0.00
2013-1-27,42,38,35,40,37,34,99,97,88,30.05,29.97,5,1,14,0.00
2013-1-28,39,37,35,38,37,35,100,99,97,30.03,29.98,6,1,20,0.00
2013-2-2,57,45,37,47,41,36,98,90,70,30.21,30.17,0,0,0,0.00
2013-2-3,46,38,33,43,37,32,99,97,87,30.26,30.14,1,0,4,0.00
2013-2-4,55,45,40,47,43,39,98,93,73,30.14,29.86,2,0,8,0.00
2013-2-5,47,42,38,46,41,37,99,98,97,29.92,29.81,2,0,7,0.00
2013-2-6,45,42,41,44,41,41,99,98,96,30.03,29.84,1,0,9,0.00
2013-2-7,48,40,35,42,39,34,99,95,72,30.06,29.83,2,0,10,0.00
2013-2-8,44,36,31,37,34,31,99,92,73,30.19,30.09,2,0,10,0.00
2013-2-9,44,38,33,40,36,32,98,95,84,30.22,30.15,3,0,9,0.00
2013-2-10,50,42,36,41,38,35,99,88,68,30.25,30.18,2,0,7,0.00
2013-2-11,43,41,39,43,38,37,99,92,80,30.27,30.21,3,0,10,0.00
2013-2-12,49,45,43,47,44,42,98,96,88,30.33,30.26,6,2,16,0.00
2013-2-15,63,52,37,51,47,37,99,83,62,30.39,30.18,2,0,4,0.00
2013-2-16,47,41,37,45,40,37,99,97,91,30.19,30.12,6,2,20,0.00
2013-2-17,44,39,34,38,37,33,97,93,77,30.22,30.09,3,0,8,0.00
2013-2-18,45,37,33,38,35,32,98,92,75,30.09,29.72,2,0,10,0.00
2013-2-19,50,39,33,38,36,32,97,89,61,29.95,29.67,3,0,9,0.00
2013-2-20,45,38,33,38,36,32,98,92,75,30.03,29.95,3,0,10,0.00
2013-2-21,40,39,37,40,38,36,99,97,93,30.08,29.99,4,1,14,0.00
2013-2-22,41,39,36,40,38,35,99,98,97,30.02,29.71,4,0,20,0.00
2013-2-23,40,37,35,39,37,35,99,97,94,30.31,29.88,7,2,17,0.00
2013-2-24,46,41,37,42,38,36,98,92,80,30.32,29.99,2,0,6,0.00
2013-2-25,41,38,36,40,37,35,99,98,96,30.23,29.91,6,1,22,0.00
2013-2-26,47,40,35,41,38,34,98,94,73,30.29,30.19,2,0,10,0.00
2013-2-27,54,43,37,44,40,36,99,92,62,30.27,30.22,1,0,5,0.00
2013-2-28,46,43,41,46,43,40,99,99,98,30.35,30.21,0,0,0,0.00
2013-3-1,58,49,45,55,48,43,99,97,87,30.35,30.27,1,0,6,0.00
2013-3-2,54,45,40,50,44,38,99,95,84,30.27,30.01,5,1,20,0.00
2013-3-3,48,40,33,39,36,32,98,87,63,30.21,30.11,5,2,21,0.00
2013-3-4,57,39,30,37,31,27,98,76,33,30.21,29.91,6,1,14,0.00
2013-3-5,48,43,35,39,36,30,92,74,55,29.91,29.70,2,0,13,0.00
2013-3-6,47,42,39,42,39,38,99,89,74,29.87,29.52,2,0,11,0.00
2013-3-7,52,41,37,45,39,35,99,93,63,30.02,29.88,3,0,8,0.00
2013-3-8,57,36,33,41,34,32,99,92,46,30.05,29.97,2,0,6,0.00
2013-3-9,59,42,33,41,36,32,98,83,41,30.43,30.18,5,0,10,0.00
2013-3-10,46,41,34,45,40,33,97,96,94,30.43,30.32,4,0,11,0.00
2013-3-11,52,46,44,50,45,43,97,96,89,30.34,30.17,2,0,11,0.00
2013-3-12,57,49,44,53,48,43,99,96,85,30.17,30.07,3,0,10,0.00
2013-3-13,56,51,48,54,50,47,99,96,88,30.19,30.12,3,0,9,0.00
2013-3-14,64,50,45,54,46,38,99,88,42,30.14,30.01,7,1,19,0.00
2013-3-15,58,50,47,54,49,46,99,96,84,30.16,30.09,4,0,10,0.00
2013-3-16,49,45,37,48,44,36,98,96,86,30.09,29.83,6,2,22,0.00
2013-3-17,43,38,35,39,37,34,99,95,82,30.14,29.92,6,2,22,0.00
2013-3-18,50,42,36,43,39,35,98,88,70,30.18,30.11,6,2,16,0.00
2013-3-19,50,38,34,42,37,34,98,95,60,30.18,29.68,1,0,6,0.00
2013-3-20,49,41,35,47,41,35,99,97,87,30.01,29.46,7,2,28,0.00
2013-3-21,39,36,35,38,36,34,99,98,97,30.17,30.01,3,1,14,0.00
2013-3-22,40,36,34,38,35,33,98,96,87,30.29,30.15,3,0,11,0.00
2013-3-23,51,38,32,37,33,23,98,84,35,30.34,30.19,3,0,7,0.00
2013-3-24,53,39,31,41,35,31,98,86,46,30.25,30.07,3,0,9,0.00
2013-3-25,61,44,33,46,38,32,98,82,44,30.11,29.87,4,0,9,0.00
2013-3-26,59,48,42,47,44,41,96,85,57,29.98,29.92,1,0,6,0.00
2013-3-27,58,48,44,51,46,43,98,93,76,29.96,29.86,1,0,4,0.00
2013-3-28,60,49,42,50,46,41,98,90,67,30.18,29.96,2,0,5,0.00
2013-3-29,71,52,42,49,44,41,98,80,36,30.27,30.18,4,0,12,0.00
2013-3-30,78,56,40,50,44,-100,98,72,29,30.29,30.06,4,0,9,0.00
2013-3-31,80,59,43,51,45,37,97,68,23,30.11,29.89,4,1,8,0.00
2013-4-1,67,58,44,53,49,43,97,74,60,30.14,30.01,8,2,21,0.00
2013-4-2,59,55,52,52,51,49,95,87,76,30.20,30.16,4,1,11,0.00
2013-4-3,68,55,44,50,46,39,97,75,36,30.20,29.96,4,0,12,0.00
2013-4-4,56,53,48,55,51,46,98,95,84,29.96,29.68,1,0,4,0.00
2013-4-5,57,52,49,55,51,48,98,97,88,29.84,29.75,3,0,10,0.00
2013-4-6,52,48,44,49,46,43,98,96,89,29.88,29.72,5,1,12,0.00
2013-4-7,44,42,39,43,41,38,99,98,97,29.80,29.46,6,1,14,0.00
2013-4-8,53,45,40,48,44,39,98,94,82,30.23,29.80,5,1,15,0.00
2013-4-9,58,49,44,49,45,43,98,87,61,30.30,30.21,4,0,9,0.00
2013-4-10,52,49,45,51,47,43,98,94,86,30.22,29.95,8,2,23,0.00
2013-4-11,54,46,40,46,43,38,96,89,66,30.25,30.15,6,2,17,0.00
2013-4-12,51,41,36,45,40,35,98,95,69,30.15,29.72,3,0,10,0.00
2013-4-13,40,38,36,39,37,35,98,98,97,29.94,29.76,7,2,21,0.00
2013-4-14,48,42,38,43,40,37,98,93,77,29.94,29.84,4,1,11,0.00
2013-4-15,52,43,37,45,40,36,98,89,65,30.11,29.88,5,1,8,0.00
2013-4-16,52,43,37,43,40,36,98,89,67,30.40,30.11,6,1,10,0.00
2013-4-17,57,44,33,45,38,32,98,84,52,30.47,30.38,5,1,11,0.00
2013-4-18,51,47,44,48,44,41,97,90,79,30.43,30.29,5,1,11,0.00
2013-4-19,52,49,47,51,48,46,98,97,93,30.26,30.10,4,1,18,0.00
2013-4-20,55,50,46,49,47,45,96,91,79,30.24,30.14,7,2,20,0.00
2013-4-21,53,48,43,49,45,42,97,89,71,30.25,30.16,6,2,20,0.00
2013-4-22,65,51,36,44,37,28,98,67,25,30.42,30.25,5,1,13,0.00
2013-4-23,65,50,37,43,39,33,98,71,30,30.39,30.13,5,1,11,0.00
2013-4-24,73,47,37,43,39,36,96,78,26,30.32,30.00,4,0,13,0.00
2013-4-25,74,51,41,48,43,39,94,77,36,30.10,30.00,3,0,8,0.00
2013-4-26,78,56,47,49,45,40,94,74,26,30.19,30.14,4,1,13,0.00
2013-4-27,64,50,44,50,44,37,97,84,37,30.19,30.16,4,1,12,0.00
2013-4-28,58,53,48,50,48,45,97,85,64,30.16,29.97,6,1,14,0.00
2013-4-29,52,47,43,46,42,36,97,84,71,30.09,29.96,8,3,22,0.00
2013-4-30,55,45,39,38,36,30,88,74,40,30.40,30.11,4,2,15,0.00
2013-5-1,73,56,33,43,35,27,97,52,19,30.52,30.39,3,1,8,0.00
2013-5-2,81,60,43,48,41,29,89,58,17,30.52,30.24,7,1,14,0.00
2013-5-3,79,59,45,50,47,44,95,67,34,30.31,30.11,6,1,13,0.00
2013-5-4,81,65,47,49,42,33,95,53,18,30.19,29.92,5,2,14,0.00
2013-5-5,85,70,54,45,39,28,65,38,14,29.95,29.72,5,1,11,0.00
2013-5-6,88,69,52,50,44,33,74,46,14,29.85,29.67,5,1,14,0.00
2013-5-7,79,65,51,58,53,48,89,66,45,29.93,29.79,7,2,19,0.00
2013-5-8,75,63,55,58,55,53,93,78,55,30.09,29.93,6,2,16,0.00
2013-5-9,77,65,55,57,55,53,94,74,50,30.13,30.02,4,1,10,0.00
2013-5-10,61,59,58,55,54,54,87,84,80,30.13,30.11,0,0,0,0.00
2013-5-11,87,75,60,61,57,56,86,59,35,30.14,29.92,6,2,16,0.00
2013-5-12,69,62,59,62,58,55,96,86,67,30.05,30.00,2,0,8,0.00
2013-5-13,66,57,47,58,54,45,97,91,58,30.15,29.92,5,1,14,0.00
2013-5-14,65,51,42,48,43,39,98,80,38,30.19,30.05,4,1,9,0.00
2013-5-15,59,51,45,54,48,44,97,90,69,30.10,29.97,3,0,6,0.00
2013-5-16,59,54,51,58,53,50,97,96,93,29.98,29.85,0,0,0,0.00
2013-5-17,58,54,52,53,49,-100,97,93,78,30.02,29.91,3,1,10,0.00
2013-5-18,59,55,50,53,51,49,96,86,76,30.21,30.02,4,2,15,0.00
2013-5-19,59,55,53,54,52,51,97,91,81,30.33,30.21,5,2,13,0.00
2013-5-20,74,55,49,55,50,48,95,84,51,30.30,29.86,6,1,14,0.00
2013-5-21,56,47,44,52,46,43,97,95,87,29.84,29.76,4,1,13,0.00
2013-5-22,44,42,41,43,41,40,97,97,96,29.85,29.83,2,1,10,0.00
2013-5-23,47,45,44,46,44,43,98,98,97,29.95,29.93,0,0,0,0.00
2013-5-24,60,54,47,54,50,46,97,86,68,30.02,29.93,4,1,11,0.00
2013-5-25,65,55,49,53,49,44,97,80,52,30.01,29.93,4,1,8,0.00
2013-5-26,69,56,49,55,51,48,97,84,49,29.97,29.91,7,2,20,0.00
2013-5-27,59,54,51,57,53,50,97,96,86,29.95,29.70,3,0,7,0.00
2013-5-28,62,56,52,56,53,50,97,90,70,29.84,29.72,5,1,15,0.00
2013-5-29,57,53,49,54,51,48,97,94,84,29.94,29.64,6,1,19,0.00
2013-5-30,60,53,48,55,50,47,97,89,68,30.20,29.93,5,1,16,0.00
2013-5-31,71,59,51,52,50,47,97,76,46,30.28,30.17,5,1,15,0.00
2013-6-1,76,61,49,54,50,40,97,71,33,30.21,29.97,7,2,17,0.00
2013-6-2,71,61,53,54,52,48,93,73,45,30.03,29.96,7,2,15,0.00
2013-6-3,77,62,50,56,52,48,95,72,47,30.07,29.95,6,2,16,0.00
2013-6-4,87,66,50,58,52,45,96,67,25,30.07,29.93,5,1,12,0.00
2013-6-5,83,71,57,60,57,52,91,64,37,30.04,29.92,6,2,18,0.00
2013-6-6,84,70,56,62,57,50,94,67,41,29.99,29.89,7,2,20,0.00
2013-6-7,73,64,54,58,53,50,88,70,51,30.07,29.98,8,2,27,0.00
2013-6-8,78,65,55,56,53,48,91,67,38,30.13,29.98,7,2,19,0.00
2013-6-9,72,62,54,54,52,49,90,71,50,30.03,29.92,6,3,19,0.00
2013-6-10,70,60,51,53,50,48,89,71,52,29.95,29.79,7,2,19,0.00
2013-6-11,60,55,52,53,49,46,92,80,65,30.08,29.88,5,2,18,0.00
2013-6-12,64,55,50,54,50,47,97,86,57,30.10,30.06,4,1,13,0.00
2013-6-13,61,56,51,56,53,50,97,90,76,30.19,30.09,7,2,18,0.00
2013-6-14,71,59,53,55,52,50,93,80,55,30.21,29.99,4,2,13,0.00
2013-6-15,84,70,50,57,54,48,97,61,30,30.01,29.82,7,2,21,0.00
2013-6-16,76,65,56,62,57,53,93,77,57,30.05,29.94,7,2,20,0.00
2013-6-17,80,67,57,59,56,50,95,72,38,30.05,29.81,5,2,18,0.00
2013-6-18,73,63,57,58,52,46,92,70,41,29.93,29.81,7,2,22,0.00
2013-6-19,63,58,55,55,52,51,90,83,72,29.95,29.87,7,2,18,0.00
2013-6-20,58,56,54,54,52,51,95,89,84,30.04,29.95,6,2,24,0.00
2013-6-21,68,68,67,56,56,55,67,65,63,30.07,30.06,3,3,12,0.00
2013-6-22,81,74,57,60,57,54,90,58,41,30.04,29.81,6,2,13,0.00
2013-6-23,70,65,60,67,62,58,96,91,81,29.83,29.57,1,0,3,0.00
2013-6-24,68,62,58,62,58,54,97,87,62,29.67,29.56,4,1,15,0.00
2013-6-25,69,61,57,62,59,56,97,92,70,29.84,29.67,2,0,7,0.00
2013-6-26,74,62,58,64,59,57,97,90,63,30.05,29.84,4,0,8,0.00
2013-6-27,75,65,59,67,62,58,97,89,69,30.18,30.04,4,0,10,0.00
2013-6-28,94,76,59,69,63,58,97,70,32,30.18,29.97,6,2,17,0.00
2013-6-29,87,77,68,68,66,62,90,70,46,30.07,29.92,6,2,18,0.00
2013-6-30,101,82,63,71,63,50,94,61,19,29.98,29.77,5,1,14,0.00
2013-7-1,93,81,68,70,67,63,86,65,38,29.95,29.84,7,2,21,0.00
2013-7-2,89,79,71,70,66,61,82,65,46,30.01,29.92,8,3,23,0.00
2013-7-3,83,71,64,65,60,49,88,69,45,30.06,29.91,7,3,20,0.00
2013-7-4,73,67,63,58,55,49,79,65,55,30.00,29.95,5,2,13,0.00
2013-7-5,69,63,59,58,56,55,86,79,67,29.95,29.88,4,2,13,0.00
2013-7-6,79,68,60,62,59,56,88,73,53,29.91,29.78,6,2,17,0.00
2013-7-7,77,67,58,63,60,57,95,80,59,29.89,29.80,8,2,19,0.00
2013-7-8,81,67,60,63,58,-100,91,77,52,30.02,29.88,7,2,19,0.00
2013-7-9,89,74,59,65,61,58,95,67,40,30.05,29.90,6,2,17,0.00
2013-7-10,82,76,65,61,58,55,83,55,41,29.98,29.84,8,4,25,0.00
2013-7-11,75,63,53,56,51,48,88,66,46,30.01,29.88,5,3,17,0.00
2013-7-12,72,64,56,56,53,52,88,69,52,30.01,29.94,4,2,12,0.00
2013-7-13,81,64,53,56,52,49,93,70,39,30.15,29.98,6,1,18,0.00
2013-7-14,86,70,55,57,53,47,92,59,26,30.09,29.88,6,2,15,0.00
2013-7-15,87,69,55,59,53,48,83,60,36,30.03,29.79,6,1,13,0.00
2013-7-16,96,77,62,67,57,41,77,56,15,29.88,29.72,3,1,14,0.00
2013-7-17,74,69,64,64,62,60,96,79,67,30.12,29.87,8,2,18,0.00
2013-7-18,82,72,60,65,61,58,92,70,47,30.14,30.01,6,2,18,0.00
2013-7-19,84,72,62,64,62,59,92,71,49,30.09,29.92,6,2,17,0.00
2013-7-20,83,70,62,65,60,-100,94,75,48,30.04,29.85,7,2,19,0.00
2013-7-21,83,71,61,64,61,58,91,73,50,29.94,29.82,8,2,22,0.00
2013-7-22,82,74,61,65,62,59,94,69,50,29.98,29.89,7,3,19,0.00
2013-7-23,90,73,59,65,61,58,96,71,40,30.04,29.87,7,1,17,0.00
2013-7-24,89,76,60,62,60,57,92,60,37,30.02,29.91,6,2,19,0.00
2013-7-25,84,72,60,60,58,55,90,64,39,30.06,29.98,5,1,14,0.00
2013-7-26,89,74,59,59,56,48,88,56,31,30.14,29.99,8,2,19,0.00
2013-7-27,80,69,55,58,53,49,84,59,44,30.12,29.92,6,3,16,0.00
2013-7-28,75,65,58,59,56,53,87,72,55,29.97,29.86,7,3,21,0.00
2013-7-29,80,69,59,61,58,55,87,71,51,29.95,29.84,7,2,18,0.00
2013-7-30,82,71,60,63,60,57,92,71,50,30.08,29.95,8,2,21,0.00
2013-7-31,76,69,62,68,64,60,95,84,68,30.09,29.94,5,1,10,0.00
2013-8-1,66,63,62,64,59,56,95,86,80,30.03,29.96,4,1,12,0.00
2013-8-2,68,62,59,60,58,56,93,85,73,30.09,30.02,3,1,10,0.00
2013-8-3,82,69,61,64,61,59,95,77,53,30.08,29.95,5,1,15,0.00
2013-8-4,91,75,60,66,62,58,96,68,36,30.02,29.84,6,1,14,0.00
2013-8-5,89,75,62,66,63,60,93,70,42,29.98,29.83,6,1,16,0.00
2013-8-6,89,74,61,63,60,57,91,65,34,29.96,29.83,6,1,16,0.00
2013-8-7,89,73,60,61,59,56,88,65,38,29.99,29.85,7,2,21,0.00
2013-8-8,85,76,65,64,62,59,80,63,47,29.98,29.84,6,3,20,0.00
2013-8-9,83,73,61,67,63,59,95,72,52,29.92,29.78,6,2,18,0.00
2013-8-10,82,72,65,69,66,64,96,83,56,29.96,29.85,6,2,19,0.00
2013-8-11,77,69,63,66,63,61,95,81,63,29.99,29.91,6,2,16,0.00
2013-8-12,81,70,63,63,61,59,91,74,51,30.01,29.90,7,2,19,0.00
2013-8-13,87,72,60,63,57,-100,90,66,36,30.06,29.86,6,2,19,0.00
2013-8-14,83,70,59,63,58,56,92,71,42,29.94,29.86,3,1,10,0.00
2013-8-15,76,58,63,68,34,-100,96,74,67,29.93,29.89,5,1,11,0.00
2013-8-16,88,70,62,67,55,-100,93,69,31,29.97,29.88,5,1,18,0.00
2013-8-17,82,71,63,64,58,-100,92,69,47,30.02,29.93,6,2,18,0.00
2013-8-18,84,72,63,63,59,55,87,66,41,30.09,29.95,6,2,17,0.00
2013-8-19,84,66,60,62,42,-100,89,62,41,30.07,29.95,7,2,22,0.00
2013-8-20,83,70,60,61,56,-100,92,67,40,30.08,29.95,6,2,18,0.00
2013-8-21,86,73,57,62,58,55,93,63,42,30.02,29.84,4,1,13,0.00
2013-8-22,83,72,59,63,59,53,85,66,42,29.91,29.78,3,1,8,0.00
2013-8-23,75,70,65,64,62,58,95,77,62,29.85,29.78,8,2,21,0.00
2013-8-24,75,68,62,59,55,-100,89,68,54,29.85,29.78,5,2,17,0.00
2013-8-25,73,64,58,61,58,55,96,82,58,29.88,29.81,4,1,12,0.00
2013-8-26,78,64,59,67,60,56,97,88,47,29.93,29.83,3,0,8,0.00
2013-8-27,65,61,59,62,60,58,96,94,89,29.93,29.88,0,0,2,0.00
2013-8-28,83,76,69,67,66,63,93,73,51,29.87,29.77,5,2,9,0.00
2013-8-29,72,67,65,69,66,64,96,95,91,30.01,29.85,0,0,0,0.00
2013-8-30,80,71,63,64,62,59,97,76,50,30.08,29.99,5,2,13,0.00
2013-8-31,82,67,57,65,61,56,96,83,57,30.03,29.77,3,1,10,0.00
2013-9-1,84,68,61,64,62,59,95,82,52,29.86,29.72,6,1,15,0.00
2013-9-2,77,68,63,63,62,61,92,80,58,29.88,29.82,4,1,10,0.00
2013-9-3,71,68,65,64,63,62,95,85,74,29.95,29.87,3,1,6,0.00
2013-9-4,75,66,60,64,62,59,95,87,69,29.96,29.91,5,1,15,0.00
2013-9-5,67,65,63,64,63,62,96,92,87,29.95,29.92,2,1,7,0.00
2013-9-6,60,60,60,59,59,59,97,97,97,29.93,29.93,0,0,0,0.00
2013-9-7,76,64,57,62,59,56,97,85,60,30.07,29.96,2,0,4,0.00
2013-9-8,79,66,62,64,62,61,96,89,55,30.05,29.98,4,0,11,0.00
2013-9-9,84,67,61,65,62,60,96,86,53,30.00,29.87,5,1,11,0.00
2013-9-10,66,64,62,63,62,61,96,94,91,29.94,29.92,0,0,0,0.00
2013-9-12,78,75,71,68,67,66,85,77,70,29.88,29.85,3,0,7,0.00
2013-9-13,76,68,64,67,65,62,96,90,73,29.89,29.78,2,0,10,0.00
2013-9-14,64,63,60,63,61,59,96,95,94,29.81,29.78,0,0,0,0.00
2013-9-16,64,62,60,60,59,59,96,92,88,29.88,29.77,2,1,9,0.00
2013-9-17,60,58,57,59,56,55,96,94,90,29.90,29.79,3,1,10,0.00
2013-9-18,57,56,52,56,54,51,96,93,90,30.05,29.90,6,1,14,0.00
2013-9-19,82,62,47,57,50,44,98,70,28,30.03,29.78,5,0,10,0.00
2013-9-22,58,56,55,57,55,54,97,96,94,29.75,29.60,4,0,11,0.00
2013-9-23,59,55,53,57,54,52,97,96,90,29.93,29.75,2,1,11,0.00
2013-9-24,60,53,49,54,51,48,98,92,68,29.93,29.79,4,1,14,0.00
2013-9-25,59,53,50,54,50,49,98,92,82,29.97,29.80,4,1,10,0.00
2013-9-26,63,53,47,53,49,46,98,87,61,30.11,29.97,4,1,10,0.00
2013-9-27,53,50,46,52,49,45,98,97,96,30.11,29.86,0,0,2,0.00
2013-9-28,59,55,53,58,54,52,98,98,97,29.87,29.36,10,1,34,0.00
2013-9-29,52,50,48,51,50,48,99,99,97,29.61,29.27,7,0,19,0.00
2013-9-30,53,50,48,52,49,47,99,97,95,29.88,29.45,5,1,14,0.00
2013-10-1,51,49,48,50,48,47,98,97,94,30.13,30.07,1,0,3,0.00
2013-10-2,59,50,47,52,48,47,99,95,65,30.13,29.96,7,0,20,0.00
2013-10-3,59,51,47,52,48,46,99,91,71,30.39,30.11,4,1,11,0.00
2013-10-4,71,51,40,54,47,39,99,87,39,30.46,30.32,1,0,5,0.00
2013-10-5,75,53,43,59,46,-100,99,84,40,30.37,30.12,1,0,5,0.00
2013-10-6,79,61,46,52,45,40,96,61,29,30.15,29.88,4,1,13,0.00
2013-10-7,57,52,50,52,50,44,97,93,61,30.01,29.88,5,1,18,0.00
2013-10-8,52,49,45,50,48,44,98,97,91,30.04,29.91,5,1,17,0.00
2013-10-9,62,48,38,50,45,38,99,90,64,30.13,29.96,3,0,8,0.00
2013-10-10,61,51,44,53,48,43,99,89,57,30.06,29.94,4,1,13,0.00
2013-10-18,74,60,45,53,50,44,98,71,39,30.22,30.09,1,0,4,0.00
2013-10-19,70,57,48,54,46,-100,96,74,45,30.14,30.06,5,1,11,0.00
2013-10-20,73,60,48,56,52,47,98,76,46,30.14,30.04,2,0,7,0.00
2013-10-21,78,61,48,56,53,47,96,79,38,30.12,30.01,0,0,2,0.00
2013-10-22,81,61,50,57,51,47,90,75,32,30.09,29.97,0,0,1,0.00
2013-10-23,80,63,52,57,52,49,90,70,37,30.03,29.93,1,0,4,0.00
2013-10-24,72,58,49,54,51,45,87,78,51,30.05,29.95,4,0,13,0.00
2013-10-25,62,53,44,54,50,43,98,89,72,30.26,30.16,4,0,9,0.00
2013-10-26,63,49,41,51,44,-100,99,87,59,30.27,30.14,3,0,8,0.00
2013-10-27,53,49,44,51,48,43,98,96,91,30.14,29.81,5,0,16,0.00
2013-10-28,60,50,43,48,39,-100,98,72,42,29.89,29.79,2,0,10,0.00
2013-10-29,58,45,35,42,37,33,95,78,46,30.01,29.89,4,0,14,0.00
2013-10-30,58,44,35,44,39,34,98,85,55,30.12,30.02,4,0,13,0.00
2013-10-31,55,50,46,54,48,44,98,96,86,30.21,30.11,4,0,11,0.00
2013-12-6,29,26,24,20,15,11,75,62,53,30.13,30.00,7,3,20,0.00
2013-12-7,32,23,16,16,9,-100,92,60,40,30.32,30.09,4,1,19,0.00
2013-12-8,32,21,14,21,17,13,96,87,57,30.49,30.33,1,0,5,0.00
2013-12-9,29,24,17,28,23,16,97,95,90,30.51,30.38,0,0,0,0.00
2013-12-10,36,33,29,35,32,28,98,98,96,30.42,30.33,1,0,6,0.00
2013-12-11,44,35,29,43,34,29,99,97,95,30.35,30.14,0,0,0,0.00
2013-12-12,43,38,34,43,38,34,99,99,99,30.14,30.02,0,0,0,0.00
2013-12-30,46,42,37,46,41,36,99,98,95,30.35,30.20,3,0,8,0.00
2013-12-31,47,45,44,46,44,43,99,97,94,30.42,30.24,4,1,13,0.00
2014-1-1,53,41,34,46,40,34,99,96,78,30.46,30.32,0,0,0,0.00
2014-1-2,54,47,41,50,46,40,99,95,84,30.32,30.01,3,0,15,0.00